Stations météo

réclame
Mon MeteoGroup
Skillinge, Suède (2625): Température de l'air & dewpoint: 17.10.2018 07:00:00 - 23.10.2018 07:00:00 (CEST)Skillinge, Suède (2625): Vitesse du vent & gusts: 17.10.2018 07:00:00 - 23.10.2018 07:00:00 (CEST)Skillinge, Suède (2625): Direction du vent: 17.10.2018 07:00:00 - 23.10.2018 07:00:00 (CEST)Skillinge, Suède (2625): reduced air pressure: 17.10.2018 07:00:00 - 23.10.2018 07:00:00 (CEST)Skillinge, Suède (2625): visibility: 17.10.2018 07:00:00 - 23.10.2018 07:00:00 (CEST)Skillinge, Suède (2625): Quantités de précipitations: 17.10.2018 07:00:00 - 23.10.2018 07:00:00 (CEST)
Date & Time tt [°C] td [°C] ff [km/h] ff [knt] fx [km/h] fx [knt] dd ppp [hPa] vv [km] rr [mm]
23.10.2018 07:00:00 9,6 8,4 29 15 71 39 WSW 1003,5 6 1,4
23.10.2018 06:00:00 9,4 8,8 23 12 71 39 W 1005,8 3,4 3,4
23.10.2018 05:00:00 - - - - - - - - - -
23.10.2018 04:00:00 9,0 7,3 34 18 54 29 WSW 1010,6 8 1,6
23.10.2018 03:00:00 8,2 5,8 26 14 54 29 WSW 1014,0 7 1,0
23.10.2018 02:00:00 8,4 5,3 27 14 48 26 WSW 1016,1 10 0,3
23.10.2018 01:00:00 8,6 4,4 25 14 42 23 WSW 1017,6 20 0,0
23.10.2018 00:00:00 8,2 4,4 23 13 35 19 WSW 1019,6 19 0,0
22.10.2018 23:00:00 6,5 3,3 13 7 25 13 W 1021,2 18 0,0
22.10.2018 22:00:00 6,5 3,3 12 7 21 11 W 1021,8 19 0,0
22.10.2018 21:00:00 6,3 2,9 11 6 21 11 W 1022,4 17 0,0
22.10.2018 20:00:00 5,4 2,6 8 4 22 12 W 1022,7 19 0,0
22.10.2018 19:00:00 7,1 2,4 8 4 30 16 W 1023,5 21 0,0
22.10.2018 18:00:00 8,5 3,5 12 6 42 23 W 1023,7 18 0,0
22.10.2018 17:00:00 10,4 3,2 21 11 46 25 WNW 1023,4 20 0,0
22.10.2018 16:00:00 11,3 2,8 23 12 46 25 WNW 1023,3 23 0,0
22.10.2018 15:00:00 12,6 3,5 22 12 41 22 WNW 1022,7 21 0,0
22.10.2018 14:00:00 12,4 3,6 22 12 39 21 WNW 1022,8 21 0,0
22.10.2018 13:00:00 11,8 2,8 21 11 39 21 WNW 1022,6 28 0,0
22.10.2018 12:00:00 11,7 5,6 18 10 35 19 WNW 1022,6 28 0,0
22.10.2018 11:00:00 12,0 6,9 15 8 29 15 WNW 1022,4 20 0,0
22.10.2018 10:00:00 10,9 7,0 15 8 25 13 WNW 1022,3 22 0,0
22.10.2018 09:00:00 9,6 7,0 10 5 22 12 WNW 1021,9 22 0,0
22.10.2018 08:00:00 10,7 7,9 13 7 21 11 WNW 1021,0 24 0,0
22.10.2018 07:00:00 11,3 8,9 11 6 36 19 NW 1020,4 46 0,0
22.10.2018 06:00:00 11,7 10,9 15 8 41 22 W 1020,0 4,8 0,0
22.10.2018 05:00:00 11,9 11,0 26 14 41 22 WSW 1019,6 1,9 0,0
22.10.2018 04:00:00 12,7 10,4 25 14 44 24 WSW 1019,9 6 0,0
22.10.2018 03:00:00 12,5 10,7 27 14 44 24 WSW 1020,4 4,7 0,0
22.10.2018 02:00:00 12,7 10,6 27 15 44 24 WSW 1021,0 6 0,0
22.10.2018 01:00:00 12,5 11,1 26 14 40 22 WSW 1021,5 2,0 0,0
22.10.2018 00:00:00 12,9 10,4 23 12 39 21 WSW 1022,0 9 0,0
21.10.2018 23:00:00 12,9 10,6 24 13 37 20 WSW 1022,0 9 0,0
21.10.2018 22:00:00 12,9 10,6 21 11 34 18 SW 1022,4 12 0,0
21.10.2018 21:00:00 12,8 10,5 21 12 33 18 SW 1023,0 12 0,0
21.10.2018 20:00:00 12,4 10,6 22 12 32 17 SW 1023,4 13 0,0
21.10.2018 19:00:00 12,2 10,1 17 9 32 17 SW 1023,7 24 0,0
21.10.2018 18:00:00 12,0 9,4 19 10 36 19 SW 1024,0 27 0,0
21.10.2018 17:00:00 11,8 9,0 17 9 36 19 SW 1024,3 26 0,0
21.10.2018 16:00:00 12,4 8,9 20 11 34 18 WSW 1024,7 25 0,0
21.10.2018 15:00:00 12,7 9,0 22 12 33 18 WSW 1025,1 26 0,0
21.10.2018 14:00:00 12,5 8,0 22 12 33 18 WSW 1025,7 34 0,0
21.10.2018 13:00:00 14,0 8,0 23 12 33 18 WSW 1026,1 29 0,0
21.10.2018 12:00:00 12,9 8,0 20 11 28 15 SW 1026,7 34 0,0
21.10.2018 11:00:00 12,0 9,6 17 9 24 13 WSW 1026,5 20 0,0
21.10.2018 10:00:00 10,2 8,6 9 5 15 8 W 1027,0 17 0,0
21.10.2018 09:00:00 7,6 7,2 8 4 12 7 W 1026,8 10 0,0
21.10.2018 08:00:00 5,4 5,1 4 2 10 5 W 1026,6 8 0,0
21.10.2018 07:00:00 5,0 4,4 5 3 12 7 WNW 1026,9 9 0,0
21.10.2018 06:00:00 5,0 4,6 7 4 12 7 NW 1026,7 11 0,0
21.10.2018 05:00:00 4,9 4,3 6 3 11 6 WNW 1026,8 10 0,0
21.10.2018 04:00:00 5,0 4,4 5 3 12 7 WNW 1026,5 11 0,0
21.10.2018 03:00:00 4,8 4,2 6 4 12 7 NW 1026,5 10 0,0
21.10.2018 02:00:00 5,5 4,8 9 5 12 7 NW 1026,2 9 0,0
21.10.2018 01:00:00 6,2 5,5 7 4 13 7 WNW 1026,4 10 0,0
21.10.2018 00:00:00 6,4 5,4 7 4 13 7 WNW 1026,3 9 0,0
20.10.2018 23:00:00 7,0 5,9 9 5 15 8 NW 1026,0 15 0,0
20.10.2018 22:00:00 7,0 5,9 11 6 15 8 NW 1026,1 16 0,0
20.10.2018 21:00:00 7,2 5,8 8 4 11 6 NW 1025,7 17 0,0
20.10.2018 20:00:00 7,9 6,0 5 3 10 6 WNW 1025,5 19 0,0
20.10.2018 19:00:00 9,4 6,8 5 3 16 8 WNW 1025,1 26 0,0
20.10.2018 18:00:00 11,0 8,0 7 4 16 9 WNW 1024,9 37 0,0
20.10.2018 17:00:00 11,5 9,2 8 5 17 9 W 1024,7 24 0,0
20.10.2018 16:00:00 12,0 8,7 8 4 18 10 W 1024,4 32 0,0
20.10.2018 15:00:00 12,7 7,8 11 6 21 11 WNW 1024,6 33 0,0
20.10.2018 14:00:00 11,9 8,7 9 5 21 11 WNW 1024,6 26 0,0
20.10.2018 13:00:00 11,1 8,7 11 6 21 11 W 1024,4 32 0,0
20.10.2018 12:00:00 10,1 8,0 10 5 22 12 W 1024,7 37 0,0
20.10.2018 11:00:00 9,5 7,4 11 6 22 12 W 1024,9 28 50,5
20.10.2018 10:00:00 9,1 6,2 9 5 20 11 W 1024,4 50 0,0
20.10.2018 09:00:00 9,3 5,3 8 4 16 9 W 1024,4 43 0,0
20.10.2018 08:00:00 7,4 4,9 9 5 11 6 W 1024,2 43 0,0
20.10.2018 07:00:00 8,6 6,0 8 4 11 6 W 1024,0 35 0,0
20.10.2018 06:00:00 8,3 6,4 6 3 12 6 W 1023,8 29 0,0
20.10.2018 05:00:00 8,5 6,5 6 4 17 9 W 1023,9 38 0,0
20.10.2018 04:00:00 8,6 6,4 8 5 17 9 W 1024,0 36 0,0
20.10.2018 03:00:00 8,4 6,4 7 4 13 7 W 1024,1 33 0,0
20.10.2018 02:00:00 8,3 6,1 9 5 13 7 W 1024,0 25 0,0
20.10.2018 01:00:00 8,3 5,6 8 4 11 6 W 1024,3 39 0,0
20.10.2018 00:00:00 5,8 3,8 6 3 11 6 WNW 1024,2 27 0,0
19.10.2018 23:00:00 5,6 4,2 6 3 13 7 W 1024,5 25 0,0
19.10.2018 22:00:00 6,7 4,5 7 4 14 8 W 1024,6 27 0,0
19.10.2018 21:00:00 7,1 4,6 9 5 14 8 W 1024,6 29 0,0
19.10.2018 20:00:00 7,2 5,1 8 4 10 5 W 1024,1 31 0,0
19.10.2018 19:00:00 6,6 5,2 5 3 16 8 W 1024,0 18 0,0
19.10.2018 18:00:00 8,2 5,7 6 4 20 11 WSW 1023,8 25 0,0
19.10.2018 17:00:00 11,2 6,1 13 7 20 11 WSW 1023,9 37 0,0
19.10.2018 16:00:00 12,6 6,6 13 7 20 11 WSW 1024,1 35 0,0
19.10.2018 15:00:00 11,7 6,0 13 7 15 8 S 1024,6 45 0,0
19.10.2018 14:00:00 11,3 6,2 6 3 10 5 SSE 1025,0 31 0,0
19.10.2018 13:00:00 10,7 6,3 4 2 10 5 E 1025,1 37 0,0
19.10.2018 12:00:00 10,7 6,4 6 4 9 5 E 1025,3 37 0,0
19.10.2018 11:00:00 10,2 5,6 4 2 9 5 E 1025,3 41 -
19.10.2018 10:00:00 9,1 5,3 2 1 11 6 NE 1025,0 38 0,0
19.10.2018 09:00:00 5,9 4,4 5 3 11 6 NW 1024,8 32 0,0
19.10.2018 08:00:00 4,9 3,9 5 3 10 5 NNW 1024,5 42 0,0
19.10.2018 07:00:00 4,7 3,2 5 3 10 5 NNW 1024,1 49 0,0
19.10.2018 06:00:00 3,8 2,6 5 3 10 6 NNW 1024,0 41 0,0
19.10.2018 05:00:00 4,7 3,2 6 3 13 7 NNW 1023,9 40 0,0
19.10.2018 04:00:00 5,4 3,9 6 3 13 7 NNW 1023,8 47 0,0
19.10.2018 03:00:00 6,5 4,5 7 4 14 8 NNW 1023,8 40 0,0
19.10.2018 02:00:00 6,9 4,6 5 3 15 8 N 1023,8 43 0,0
19.10.2018 01:00:00 7,6 4,9 7 4 18 10 NNW 1023,8 43 0,0
19.10.2018 00:00:00 8,3 5,1 9 5 18 10 NNW 1023,6 44 0,0
18.10.2018 23:00:00 8,6 5,2 10 6 16 9 NNW 1023,4 42 0,0
18.10.2018 22:00:00 8,0 5,1 9 5 17 9 NW 1023,0 41 0,0
18.10.2018 21:00:00 7,9 5,4 12 7 17 9 NW 1022,6 32 0,0
18.10.2018 20:00:00 8,8 5,7 11 6 16 9 NW 1022,1 33 0,0
18.10.2018 19:00:00 10,1 6,4 10 5 19 10 NW 1021,6 33 0,0
18.10.2018 18:00:00 11,9 7,0 11 6 19 10 WNW 1020,9 38 0,0
18.10.2018 17:00:00 14,5 8,2 11 6 16 9 WNW 1020,3 36 0,0
18.10.2018 16:00:00 16,2 5,2 4 2 16 9 N 1019,9 50 0,0
18.10.2018 15:00:00 16,8 8,5 5 3 16 9 NNW 1019,7 39 0,0
18.10.2018 14:00:00 15,2 9,3 6 4 15 8 N 1020,0 32 0,0
18.10.2018 13:00:00 13,5 10,1 5 3 13 7 NW 1020,1 22 0,0
18.10.2018 12:00:00 13,5 13,0 3 2 8 4 NNW 1019,8 5 0,0
18.10.2018 11:00:00 12,0 11,7 4 2 11 6 W 1019,7 1,3 0,0
18.10.2018 10:00:00 11,3 11,1 3 1 14 8 NNE 1019,5 1,4 0,0
18.10.2018 09:00:00 9,6 9,3 6 4 14 8 NW 1019,1 1,1 0,0
18.10.2018 08:00:00 9,1 9,0 5 3 9 5 NW 1018,5 0,9 0,0
18.10.2018 07:00:00 8,0 7,9 3 1 8 4 NE 1018,2 0,6 0,0
18.10.2018 06:00:00 8,5 8,1 4 2 8 4 W 1018,4 0,3 0,0
18.10.2018 05:00:00 7,9 7,6 0 0 7 4 N 1018,5 0,1 0,0
18.10.2018 04:00:00 9,4 8,8 4 2 7 4 W 1018,7 0,6 0,0
18.10.2018 03:00:00 9,7 9,4 4 2 8 4 W 1018,8 0,6 0,0
18.10.2018 02:00:00 9,9 9,6 4 2 9 5 W 1019,1 1,7 0,0
18.10.2018 01:00:00 9,6 9,3 5 3 9 5 W 1019,4 4,2 0,0
18.10.2018 00:00:00 10,5 10,2 5 3 9 5 W 1019,5 2,0 0,0
17.10.2018 23:00:00 10,4 10,1 5 3 9 5 W 1019,7 2,0 0,0
17.10.2018 22:00:00 11,2 10,9 4 2 5 3 SW 1019,9 0,2 0,0
17.10.2018 21:00:00 9,5 9,0 2 1 5 3 SW 1019,7 0,1 0,0
17.10.2018 20:00:00 10,0 9,5 2 1 5 3 WSW 1019,6 0,6 0,0
17.10.2018 19:00:00 10,7 9,8 3 1 5 3 W 1019,5 3,5 0,0
17.10.2018 18:00:00 - - - - 5 3 - - - -
17.10.2018 17:00:00 13,3 11,4 2 1 5 3 E 1019,4 7 0,0
17.10.2018 16:00:00 13,6 11,6 4 2 6 3 ESE 1019,5 6 0,0
17.10.2018 15:00:00 14,9 10,5 3 1 8 4 ESE 1019,7 10 0,0
17.10.2018 14:00:00 13,5 11,9 3 2 11 6 NE 1019,7 7 0,0
17.10.2018 13:00:00 13,7 11,7 7 4 12 6 ENE 1019,8 6 0,0
17.10.2018 12:00:00 13,9 11,2 11 6 12 6 ENE 1020,1 5 0,0
17.10.2018 11:00:00 14,2 11,7 8 5 10 5 NE 1020,2 6 0,0
17.10.2018 10:00:00 13,9 12,5 5 3 9 5 NE 1020,2 3,7 0,0
17.10.2018 09:00:00 11,9 11,1 6 3 9 5 NE 1020,0 2,3 0,0
17.10.2018 08:00:00 10,9 10,3 5 3 9 5 NE 1019,8 2,1 0,0
17.10.2018 07:00:00 9,3 8,4 0 0 8 4 N 1019,4 1,8 0,0

tt = Température de l'air
td = dewpoint
ff = Vitesse du vent
fx = gusts
dd = Direction du vent
ppp = reduced air pressure
vv = visibility
rr = Quantités de précipitations

stations d'obs. à proximité